User: anonymous   Login
Location: Newark
(42.8481°N, 0.4872°E)
Time: 12:32:29
(UTC+00:00)
Language:

Transit 2A Rocket - Orbit

View from above orbital plane
View from above orbital plane
View from above satellite
View from above satellite

Ground track
Ground track

The orbit data is extracted from the following two-line orbital elements,

1 00047U 60007C   21137.90986906 -.00000021  00000-0  20412-4 0  9992
2 00047  66.6666 340.6838 0221160  57.5015 304.7252 14.42151374182901
Epoch (UTC): 17 May 2021 21:50:12
Eccentricity: 0.0221160
inclination: 66.6666°
perigee height: 594 km
apogee height: 909 km
right ascension of ascending node: 340.6838°
argument of perigee: 57.5015°
revolutions per day: 14.42151374
mean anomaly at epoch: 304.7252°
orbit number at epoch: 18290

The dashed part of the orbit path shows where the satellite is in the earth's shadow,  

DLR